Pau, France

9:42 AM CET on December 13, 2017 (GMT +0100)
Pau / Pyrenees

Weather History for LFBP - October, 2013

Change the Weather History Date:

Monday, October 21, 2013

  Actual Average Record
Temperature  
Mean Temperature 64 °F -  
Max Temperature 75 °F 58 °F 77 °F (1997)
Min Temperature 53 °F 43 °F 33 °F (2007)
Degree Days  
Heating Degree Days 1    
Growing Degree Days 14 (Base 50)    
Moisture  
Dew Point 54 °F    
Average Humidity 80    
Maximum Humidity 94    
Minimum Humidity 47    
Precipitation  
Precipitation 0.00 in - - ()
Sea Level Pressure  
Sea Level Pressure 29.95 in    
Wind  
Wind Speed 3 mph ()    
Max Wind Speed 7 mph    
Max Gust Speed -    
Visibility 6.2 miles    
Events      
Averages and records for this station are not official NWS values.
T = Trace of Precipitation, MM = Missing Value Source: Averaged Metar Reports

Daily Weather History Graph

Daily Weather History Graph

Search for Another Location

Airport or City:

Trip Planner

Search our weather history database for the weather conditions in past years. The results will help you decide how hot, cold, wet, or windy it might be!

Date:

Astronomy

Oct. 21, 2013 Rise Set
Actual Time 8:22 AM CEST 7:08 PM CEST
Civil Twilight 7:53 AM CEST 7:37 PM CEST
Nautical Twilight 7:20 AM CEST 8:11 PM CEST
Astronomical Twilight 6:47 AM CEST 8:44 PM CEST
Moon 8:46 PM CEST (10/21) 10:47 AM CEST (10/21)
Length of Visible Light 11h 44m
Length of Day
10h 45m
Waning Gibbous, 94% of the Moon is Illuminated
Oct 21
Waning Gibbous
Oct 27
Last Quarter
Nov 3
New
Nov 10
First Quarter
Nov 17
Full

Hourly Weather History & Observations

Time (CEST) Temp. Dew Point Humidity Pressure Visibility Wind Dir Wind Speed Gust Speed Precip Events Conditions
12:00 AM 59.0 °F 55.4 °F 88% 30.06 in 6.2 mi East 3.5 mph - N/A   Overcast
12:30 AM 59.0 °F 55.4 °F 88% 30.06 in 6.2 mi East 4.6 mph - N/A   Scattered Clouds
1:00 AM 59.0 °F 55.4 °F 88% 30.04 in 6.2 mi East 3.5 mph - N/A   Unknown
1:30 AM 59.0 °F 55.4 °F 88% 30.04 in 6.2 mi SE 3.5 mph - N/A   Unknown
2:00 AM 55.4 °F 51.8 °F 88% 30.04 in 6.2 mi Calm Calm - N/A   Unknown
2:30 AM 55.4 °F 53.6 °F 94% 30.04 in 6.2 mi Variable 3.5 mph - N/A   Unknown
3:00 AM 55.4 °F 53.6 °F 94% 30.01 in 6.2 mi ESE 2.3 mph - N/A   Unknown
3:30 AM 55.4 °F 53.6 °F 94% 30.01 in 6.2 mi SE 3.5 mph - N/A   Unknown
4:00 AM 55.4 °F 53.6 °F 94% 30.01 in 6.2 mi SE 3.5 mph - N/A   Unknown
4:30 AM 55.4 °F 51.8 °F 88% 29.98 in 6.2 mi ESE 2.3 mph - N/A   Unknown
5:00 AM 55.4 °F 53.6 °F 94% 29.98 in 6.2 mi ESE 5.8 mph - N/A   Unknown
5:30 AM 55.4 °F 51.8 °F 88% 29.98 in 6.2 mi ESE 3.5 mph - N/A   Unknown
6:00 AM 55.4 °F 51.8 °F 88% 29.98 in - SE 6.9 mph - N/A   Clear
6:30 AM 55.4 °F 51.8 °F 88% 29.98 in - Variable 2.3 mph - N/A   Clear
7:00 AM 55.4 °F 51.8 °F 88% 29.98 in - SE 4.6 mph - N/A   Clear
7:30 AM 53.6 °F 51.8 °F 94% 29.95 in - Variable 2.3 mph - N/A   Clear
8:00 AM 53.6 °F 51.8 °F 94% 29.95 in - ESE 3.5 mph - N/A   Clear
8:30 AM 53.6 °F 51.8 °F 94% 29.95 in - Variable 3.5 mph - N/A   Clear
9:00 AM 55.4 °F 51.8 °F 88% 29.98 in - South 1.2 mph - N/A   Clear
9:30 AM 55.4 °F 51.8 °F 88% 29.98 in - Variable 2.3 mph - N/A   Clear
10:00 AM 57.2 °F 53.6 °F 88% 29.98 in - SE 2.3 mph - N/A   Clear
10:30 AM 57.2 °F 53.6 °F 88% 29.98 in - SE 3.5 mph - N/A   Clear
11:00 AM 59.0 °F 55.4 °F 88% 29.98 in - Variable 2.3 mph - N/A   Clear
11:30 AM 60.8 °F 55.4 °F 82% 29.98 in - Variable 3.5 mph - N/A   Clear
12:00 PM 62.6 °F 57.2 °F 82% 29.98 in - SSE 3.5 mph - N/A   Clear
12:30 PM 64.4 °F 57.2 °F 77% 29.98 in - East 3.5 mph - N/A   Clear
1:00 PM 66.2 °F 57.2 °F 73% 29.98 in - East 4.6 mph - N/A   Clear
1:30 PM 68.0 °F 55.4 °F 64% 29.95 in - Variable 2.3 mph - N/A   Clear
2:00 PM 69.8 °F 55.4 °F 60% 29.95 in - Variable 3.5 mph - N/A   Clear
2:30 PM 69.8 °F 55.4 °F 60% 29.95 in - Variable 2.3 mph - N/A   Clear
3:00 PM 71.6 °F 55.4 °F 57% 29.92 in - ESE 4.6 mph - N/A   Clear
3:30 PM 73.4 °F 55.4 °F 53% 29.92 in - East 3.5 mph - N/A   Clear
4:00 PM 75.2 °F 55.4 °F 50% 29.89 in - Variable 3.5 mph - N/A   Clear
4:30 PM 75.2 °F 57.2 °F 53% 29.89 in - ESE 6.9 mph - N/A   Clear
5:00 PM 73.4 °F 51.8 °F 47% 29.89 in - SE 5.8 mph - N/A   Clear
5:30 PM 73.4 °F 53.6 °F 50% 29.89 in - East 5.8 mph - N/A   Clear
6:00 PM 71.6 °F 55.4 °F 57% 29.89 in - East 3.5 mph - N/A   Clear
6:30 PM 69.8 °F 57.2 °F 64% 29.89 in - SE 5.8 mph - N/A   Clear
7:00 PM 68.0 °F 57.2 °F 68% 29.89 in - NNE 3.5 mph - N/A   Clear
7:30 PM 64.4 °F 57.2 °F 77% 29.89 in - East 4.6 mph - N/A   Clear
8:00 PM 62.6 °F 57.2 °F 82% 29.86 in - East 3.5 mph - N/A   Clear
8:30 PM 60.8 °F 55.4 °F 82% 29.86 in - East 6.9 mph - N/A   Clear
9:00 PM 59.0 °F 55.4 °F 88% 29.86 in - ENE 3.5 mph - N/A   Clear
9:30 PM 59.0 °F 55.4 °F 88% 29.83 in 6.2 mi SE 4.6 mph - N/A   Unknown
10:00 PM 59.0 °F 55.4 °F 88% 29.83 in 6.2 mi East 5.8 mph - N/A   Unknown
10:30 PM 59.0 °F 55.4 °F 88% 29.86 in 6.2 mi South 3.5 mph - N/A   Unknown
11:00 PM 57.2 °F 53.6 °F 88% 29.83 in 6.2 mi Calm Calm - N/A   Unknown
11:30 PM 57.2 °F 53.6 °F 88% 29.83 in 6.2 mi Variable 2.3 mph - N/A   Unknown